Regional Weather Roundup
Issued by NWS

Home | Current Version | Previous Version | Graphics & Text | Print | Product List | Glossary On
Versions: 1 2 3 4 5 6 7 8 9 10 11 12 13 14 15 16 17 18 19 20 21 22 23 24 25 26 27 28 29 30 31 32 33 34 35 36 37 38 39 40 41 42 43 44 45 46 47 48 49 50
000
ASUS43 KLMK 051002
RWRKY
KENTUCKY REGIONAL WEATHER ROUNDUP
NATIONAL WEATHER SERVICE LOUISVILLE KY
500 AM EST MON DEC 05 2016

NOTE "FAIR" INDICATES FEW OR NO CLOUDS BELOW 12,000 FEET
WITH NO SIGNIFICANT WEATHER AND/OR OBSTRUCTIONS TO VISIBILITY.

KYZ001>023-026-027-061>063-070>075-051100-
WESTERN AND SOUTH CENTRAL KENTUCKY

CITY           SKY/WX    TMP DP  RH WIND       PRES   REMARKS
PADUCAH        CLOUDY    40  34  79 NE5       30.07S
HENDERSON      CLOUDY    37  30  75 N5        30.09S WCI  34
OWENSBORO      CLOUDY    39  34  82 N5        30.10S
HOPKINSVILLE   CLOUDY    40  37  88 N10       30.06F WCI  34
BOWLING GREEN    N/A     41  36  82 N7        30.08S
GLASGOW        NOT AVBL
$$

KYZ024-025-028>034-038-045-046-053-051100-
NORTH CENTRAL KENTUCKY

CITY           SKY/WX    TMP DP  RH WIND       PRES   REMARKS
LOUISVILLE/SDF CLOUDY    40  32  73 NW8       30.08R WCI  34
LOUISVILLE/LOU CLOUDY    40  33  76 NW7       30.09R
FORT KNOX      CLOUDY    38  33  82 W5        30.06R WCI  34
$$

KYZ035>037-039>044-047>052-055>060-089>105-051100-
NORTHEAST KENTUCKY

CITY           SKY/WX    TMP DP  RH WIND       PRES   REMARKS
LEXINGTON      CLOUDY    41  36  82 W7        30.07R
COVINGTON      CLOUDY    38  34  85 NW8       30.05R WCI  32
FRANKFORT      CLOUDY    41  36  82 NW5       30.06R
$$

KYZ054-064>069-076>088-106>120-051100-
SOUTHEAST KENTUCKY

CITY           SKY/WX    TMP DP  RH WIND       PRES   REMARKS
JACKSON        CLOUDY    44  41  89 NW6       30.04R
LONDON         CLOUDY    44  41  89 NW6       30.04S
SOMERSET       CLOUDY    43  41  93 W3        30.07R
MIDDLESBORO    CLOUDY    46  46 100 CALM      30.03S FOG
MONTICELLO     CLOUDY    44  43  96 N10       30.07R
$$





USA.gov is the U.S. government's official web portal to all federal, state and local government web resources and services.